Tracking 19226 objects as of 23-Jul-2018
HD Live streaming from Space Station
objects crossing your sky now

FENGYUN 1C DEB

Track FENGYUN 1C DEB now!
10-day predictions


NORAD ID: 36991
Int'l Code: 1999-025EBX
Perigee: 811.4 km
Apogee: 1,234.8 km
Inclination: 98.1 °
Period: 105.5 minutes
Semi major axis: 7394 km
RCS: 0.0013 m2 (small)
Launch date: May 10, 1999
Source: People's Republic of China (PRC)
Launch site: Taiyaun Space Center, China (TSC)

Note: This is SATELLITE DEBRIS
aabbcc
Your satellite tracking list
Your tracking list is empty




NASA's NSSDC Master Catalog

Two Line Element Set (TLE):
1 36991U 99025EBX 18181.03303851  .00000429  00000-0  42751-3 0  9992
2 36991  98.1334 253.8054 0286308 148.0432 213.8442 13.65435232532585
Source of the keplerian elements: AFSPC